Location: *
(38.9555°S, 57.3572°E)
Time: 01:05:24
(UTC+00:00)

FengYun 1-2 T - Pass Details

Date: 15 July 2020
Orbit: 846 x 882 km, 98.7° (Epoch: 06 August)

Event Time Altitude Azimuth Distance (km) Brightness Sun altitude
Exits shadow 14:41:39 11° 157° (SSE) 2,505 6.3 -17.9°
Maximum altitude 14:47:06 56° 80° (E) 1,054 4.3 -19.0°
Drops below altitude 10° 14:52:39 10° 2° (N) 2,535 6.8 -20.0°
Sets 14:55:04 0° 357° (N) 3,462 7.6 -20.5°
